[[{"header":{"parameterUnit":"m.s-1","parameterCategory":1,"la1":30.2991,"la2":30.254,"lo1":-89.0895,"lo2":-89.0444,"dx":0.0017,"dy":0.0017,"nx":28,"ny":28,"refTime":"2022-12-16T09:00:00:Z","depth":0,"parameterNumber":2,"parameterNumberName":"U-component_of_WINDS"},"data":[0,0,0,0,0,0,0,0,0,0,0,0,0,0,0,0,0,0,0,0,0,0,0,0,0,0,0,0,0,0,0,0,0,0,0,0,0,0,0,0,0,0,0,0,0,0,0,0,0,0,0,0,0,0,0,0,0,0,2.4462,2.4463,0,2.4566,2.4567,2.4568,2.4545,2.4543,2.4541,2.4539,2.4644,2.4648,2.4653,0,0,0,0,0,0,0,0,0,0,0,0,0,2.4243,2.4247,2.4462,2.4463,2.4464,2.4565,2.4567,2.4568,2.4545,2.4542,2.454,2.4538,2.4642,2.4648,2.4653,0,0,0,0,0,0,0,0,0,0,0,0,0,2.4341,2.4248,2.4461,2.4465,2.4466,2.4565,2.4567,2.4569,2.4545,2.4542,2.4539,2.4537,2.4641,2.4647,2.4654,2.4756,0,0,2.4675,2.4678,0,0,0,0,0,0,0,0,2.4336,2.4349,2.4463,2.4465,2.4466,2.4539,2.4528,2.4631,2.4546,2.4515,2.4539,2.4535,2.4611,2.462,2.4646,2.4761,2.4765,2.4676,2.468,2.4683,2.4685,0,0,0,0,0,0,0,2.4329,2.4345,2.4503,2.4465,2.4467,2.4461,2.4472,2.4548,2.4578,2.4518,2.4516,2.4529,2.4612,2.464,2.4649,2.4767,2.4676,2.4682,2.4686,2.4689,2.4971,2.4974,0,0,0,0,0,0,2.4321,2.4339,2.4499,2.4506,2.4393,2.4467,2.4479,2.4519,2.4578,2.4584,2.4531,2.4527,2.4629,2.4641,2.4652,2.4776,2.4683,2.469,2.4694,2.4967,2.4971,2.4975,0,0,0,0,0,0,2.4316,2.4335,2.4495,2.4422,2.4442,2.4474,2.4519,2.4522,2.455,2.4588,2.4593,2.4554,2.4627,2.4642,2.4731,2.4779,2.4693,2.4699,2.4964,2.4969,2.4973,2.5023,0,0,0,0,0,0,2.431,2.4334,2.4373,2.4423,2.4446,2.4572,2.4522,2.4526,2.4563,2.4558,2.4611,2.4617,2.4626,2.472,2.4737,2.4787,2.4704,2.4959,2.4966,2.4972,2.5018,2.503,2.504,0,0,0,0,0,2.4302,2.4382,2.4375,2.4394,2.4496,2.4575,2.4588,2.4598,2.4567,2.4606,2.463,2.4615,2.4771,2.473,2.4749,2.4801,2.4956,2.4964,2.4971,2.5013,2.5027,2.5039,0,0,0,0,0,0,2.4336,2.4389,2.4381,2.448,2.4523,2.4571,2.4621,2.4613,2.4665,2.4659,2.4668,2.468,2.477,2.4794,2.4747,2.4903,2.4859,2.4871,2.4884,2.4898,2.4909,2.4901,2.471,0,0,0,0,0,2.4355,2.4415,2.4458,2.4541,2.4563,2.4588,2.4623,2.4627,2.4672,2.469,2.4721,2.4765,2.4824,2.4862,2.4918,2.5021,2.5032,2.5067,2.5078,2.5087,2.5097,2.5154,2.5169,2.5,2.5,2.4999,0,0,2.4394,2.4431,2.4468,2.4549,2.4582,2.4645,2.4604,2.4671,2.4717,2.47,2.4785,2.481,2.4859,2.4955,2.4999,2.4978,2.5146,2.5096,2.5103,2.5108,2.5163,2.5179,2.5193,2.5005,2.5004,2.5003,0,0,2.4498,2.4532,2.4605,2.464,2.4693,2.4709,2.4727,2.4776,2.4792,2.4878,2.4866,2.4921,2.5023,2.5059,2.5091,2.521,2.5198,2.5228,2.5286,2.5341,2.5355,2.5367,2.541,2.5425,2.5238,2.5238,2.5238,0,2.4541,2.4634,2.4644,2.4713,2.4749,2.4737,2.4811,2.4845,2.4913,2.4938,2.4913,2.5041,2.5074,2.5178,2.5208,2.5234,2.5254,2.5222,2.5352,2.5364,2.5375,2.5417,2.5433,2.5241,2.5241,2.5241,2.524,0,2.4684,2.4749,2.4802,2.4869,2.4911,2.4982,2.5003,2.5044,2.5045,2.5064,2.5152,2.5191,2.5255,2.528,2.5281,2.5386,2.5371,2.535,2.5306,2.5395,2.5434,2.5449,2.5246,2.5245,2.5244,2.5243,0,0,2.4812,2.4884,2.4903,2.4934,2.4991,2.5041,2.5112,2.5176,2.5212,2.5259,2.5319,2.5406,2.5386,2.5422,2.5427,2.5476,2.5569,2.5448,2.545,2.547,2.5688,2.5704,2.5722,2.5562,2.5565,2.5567,2.5684,0,2.4921,2.5047,2.5058,2.5171,2.5232,2.5222,2.5284,2.5326,2.5346,2.54,2.5422,2.5483,2.5453,2.5475,2.5522,2.5547,2.5613,2.5539,2.5618,2.562,2.5606,2.5742,2.5759,2.5867,2.5699,2.5701,2.5703,0,2.5066,2.5119,2.5238,2.5288,2.5313,2.5369,2.5429,2.5481,2.5528,2.554,2.5581,2.5579,2.5653,2.5606,2.5708,2.5657,2.569,2.5708,2.5712,2.572,2.5667,2.5754,2.5902,2.5918,2.5727,2.5725,2.5724,0,2.5148,2.5248,2.5333,2.5359,2.5419,2.5459,2.5486,2.553,2.5568,2.5621,2.5645,2.5705,2.5738,2.5785,2.58,2.5764,2.5901,2.5855,2.5913,2.5912,2.5942,2.594,2.6097,2.5963,2.5962,2.5962,2.5962,0,2.5269,2.5343,2.5371,2.5423,2.5505,2.5517,2.5598,2.5622,2.5663,2.5719,2.5714,2.5768,2.5784,2.5841,2.5853,2.5935,2.595,2.5961,2.5964,2.5962,2.5961,2.5984,2.5977,2.5966,2.5965,2.5964,2.5964,0,2.5374,2.5396,2.5488,2.5537,2.5552,2.561,2.5653,2.5703,2.5722,2.5794,2.5812,2.5843,2.5909,2.5929,2.6008,2.6016,2.6113,2.6109,2.6097,2.6097,2.6154,2.6148,2.6332,2.6357,2.6205,2.6207,2.6208,0,2.545,2.5507,2.5563,2.5601,2.563,2.5691,2.573,2.5744,2.5785,2.5844,2.5887,2.5953,2.6006,2.6112,2.6142,2.6203,2.62,2.626,2.6209,2.6206,2.6201,2.6198,2.6204,2.6269,2.6271,2.6272,2.6273,0,2.5584,2.5592,2.5648,2.5709,2.5756,2.5805,2.5851,2.5883,2.5904,2.595,2.6018,2.6059,2.6141,2.6206,2.6268,2.6296,2.6289,2.6289,2.6306,2.6305,2.6296,2.6302,2.6124,2.6285,2.6284,2.6283,2.6282,2.6282,2.5677,2.5727,2.5775,2.5838,2.5875,2.5919,2.5969,2.5995,2.6052,2.612,2.6125,2.6199,2.6246,2.6329,2.636,2.6418,2.64,2.6424,2.643,2.6436,2.644,2.6287,2.6429,2.6429,2.6428,2.6428,2.6428,0,2.581,2.5841,2.5899,2.5965,2.6015,2.6004,2.6055,2.6098,2.6163,2.6208,2.6261,2.6339,2.6403,2.6438,2.6501,2.6541,2.6539,2.6557,2.6554,2.6561,2.6452,2.6432,2.6558,2.6558,2.6558,2.6558,2.6558,2.6558,2.5886,2.597,2.5984,2.6087,2.6116,2.6189,2.6219,2.626,2.6296,2.6384,2.6437,2.646,2.6501,2.6567,2.6625,2.6634,2.6658,2.6678,2.6684,2.6582,2.6569,2.6556,2.6537,2.6683,2.6683,2.6789,2.679,2.679]},{"header":{"parameterUnit":"m.s-1","parameterCategory":1,"la1":30.2991,"la2":30.254,"lo1":-89.0895,"lo2":-89.0444,"dx":0.0017,"dy":0.0017,"nx":28,"ny":28,"refTime":"2022-12-16T09:00:00:Z","depth":0,"parameterNumber":3,"parameterNumberName":"V-component_of_WINDS"},"data":[0,0,0,0,0,0,0,0,0,0,0,0,0,0,0,0,0,0,0,0,0,0,0,0,0,0,0,0,0,0,0,0,0,0,0,0,0,0,0,0,0,0,0,0,0,0,0,0,0,0,0,0,0,0,0,0,0,0,-0.7889,-0.789,0,-0.7944,-0.7944,-0.7945,-0.7954,-0.7953,-0.7953,-0.7952,-0.801,-0.8012,-0.8014,0,0,0,0,0,0,0,0,0,0,0,0,0,-0.7794,-0.7796,-0.7889,-0.789,-0.789,-0.7944,-0.7944,-0.7945,-0.7954,-0.7953,-0.7953,-0.7952,-0.801,-0.8012,-0.8014,0,0,0,0,0,0,0,0,0,0,0,0,0,-0.7841,-0.7796,-0.7889,-0.7901,-0.7903,-0.7944,-0.7945,-0.7945,-0.7954,-0.7953,-0.7952,-0.7952,-0.8009,-0.8012,-0.8015,-0.8048,0,0,-0.8024,-0.8025,0,0,0,0,0,0,0,0,-0.7838,-0.7844,-0.7899,-0.79,-0.7902,-0.7941,-0.7932,-0.798,-0.7954,-0.7935,-0.7952,-0.7951,-0.7988,-0.7993,-0.8005,-0.805,-0.8053,-0.8024,-0.8026,-0.8027,-0.8028,0,0,0,0,0,0,0,-0.7835,-0.7842,-0.7911,-0.7899,-0.7902,-0.7904,-0.791,-0.7941,-0.7965,-0.7936,-0.7937,-0.7943,-0.7989,-0.8002,-0.8006,-0.8054,-0.8024,-0.8027,-0.8028,-0.803,-0.813,-0.8131,0,0,0,0,0,0,-0.7829,-0.7839,-0.7909,-0.7912,-0.7868,-0.7907,-0.7913,-0.7929,-0.7964,-0.7969,-0.7944,-0.7943,-0.7997,-0.8002,-0.8008,-0.8049,-0.8027,-0.803,-0.8032,-0.8129,-0.813,-0.8131,0,0,0,0,0,0,-0.7827,-0.7835,-0.7907,-0.7876,-0.7885,-0.7909,-0.7927,-0.7931,-0.7944,-0.797,-0.7975,-0.7952,-0.7996,-0.8004,-0.8038,-0.8051,-0.8031,-0.8034,-0.8128,-0.813,-0.8131,-0.8131,0,0,0,0,0,0,-0.7824,-0.7834,-0.7847,-0.7876,-0.7887,-0.7935,-0.7928,-0.7932,-0.7949,-0.7949,-0.7979,-0.7984,-0.7996,-0.8033,-0.8041,-0.8055,-0.8036,-0.8127,-0.8129,-0.813,-0.813,-0.8132,-0.8134,0,0,0,0,0,-0.7821,-0.7845,-0.7847,-0.7856,-0.7903,-0.7936,-0.7942,-0.7955,-0.795,-0.7962,-0.798,-0.7983,-0.8049,-0.8037,-0.8045,-0.806,-0.8126,-0.8128,-0.813,-0.8129,-0.8132,-0.8134,0,0,0,0,0,0,-0.7817,-0.7849,-0.7852,-0.7886,-0.7908,-0.7937,-0.7954,-0.7958,-0.7982,-0.7981,-0.7998,-0.8005,-0.8038,-0.8053,-0.8039,-0.8095,-0.8087,-0.8091,-0.8083,-0.8086,-0.8088,-0.8084,-0.8039,0,0,0,0,0,-0.782,-0.7844,-0.7871,-0.7899,-0.7909,-0.793,-0.7945,-0.7953,-0.7977,-0.7986,-0.8006,-0.8029,-0.8055,-0.8071,-0.8097,-0.8133,-0.814,-0.8147,-0.815,-0.8151,-0.8154,-0.8174,-0.8178,-0.8138,-0.8138,-0.8138,0,0,-0.7827,-0.7848,-0.7862,-0.7898,-0.7916,-0.7941,-0.7937,-0.7963,-0.7982,-0.799,-0.8023,-0.8038,-0.8066,-0.81,-0.8117,-0.8114,-0.8167,-0.8154,-0.8155,-0.8157,-0.8177,-0.818,-0.8184,-0.8139,-0.8139,-0.8138,0,0,-0.7852,-0.787,-0.7895,-0.7913,-0.794,-0.7953,-0.7959,-0.7987,-0.7998,-0.8031,-0.8038,-0.806,-0.8105,-0.8124,-0.8139,-0.8171,-0.8175,-0.8179,-0.819,-0.821,-0.8213,-0.8216,-0.8227,-0.8231,-0.8182,-0.8182,-0.8182,0,-0.7857,-0.7893,-0.7907,-0.7933,-0.7949,-0.7957,-0.7983,-0.8,-0.8034,-0.8045,-0.8042,-0.8097,-0.8116,-0.8156,-0.8163,-0.8176,-0.8184,-0.8176,-0.8211,-0.8214,-0.8217,-0.8228,-0.8233,-0.8183,-0.8183,-0.8183,-0.8183,0,-0.7898,-0.7924,-0.7941,-0.7973,-0.7991,-0.8017,-0.8035,-0.8052,-0.8059,-0.8073,-0.8107,-0.813,-0.816,-0.817,-0.8178,-0.8211,-0.8208,-0.8208,-0.82,-0.8221,-0.8232,-0.8236,-0.8183,-0.8183,-0.8183,-0.8183,0,0,-0.7922,-0.7961,-0.7967,-0.7982,-0.8012,-0.8032,-0.8059,-0.8088,-0.8102,-0.8125,-0.8148,-0.8185,-0.8185,-0.8203,-0.8213,-0.823,-0.8254,-0.8227,-0.8228,-0.8231,-0.8292,-0.8292,-0.8296,-0.8257,-0.8258,-0.8258,-0.8289,0,-0.795,-0.7996,-0.8009,-0.8048,-0.8072,-0.8081,-0.8104,-0.8125,-0.8139,-0.8162,-0.8178,-0.8204,-0.8201,-0.8212,-0.8229,-0.8247,-0.8266,-0.8245,-0.8278,-0.8279,-0.8271,-0.8302,-0.8302,-0.833,-0.8294,-0.8295,-0.8295,0,-0.7988,-0.8012,-0.8053,-0.8081,-0.8091,-0.8111,-0.8139,-0.816,-0.8185,-0.8195,-0.8214,-0.8223,-0.8251,-0.8243,-0.8283,-0.8268,-0.8283,-0.8293,-0.8295,-0.8298,-0.8288,-0.8306,-0.8339,-0.8344,-0.8302,-0.8301,-0.8301,0,-0.8001,-0.8043,-0.8073,-0.8085,-0.8118,-0.8132,-0.8147,-0.8171,-0.8188,-0.8212,-0.8223,-0.8251,-0.8266,-0.8288,-0.8304,-0.8297,-0.8343,-0.8336,-0.8351,-0.8351,-0.836,-0.8359,-0.8396,-0.837,-0.837,-0.837,-0.837,0,-0.803,-0.8055,-0.8079,-0.8097,-0.8126,-0.8141,-0.8169,-0.8184,-0.8206,-0.8228,-0.8238,-0.8258,-0.8278,-0.8302,-0.8315,-0.8346,-0.8353,-0.8361,-0.8365,-0.836,-0.8359,-0.837,-0.8368,-0.8371,-0.8371,-0.8371,-0.837,0,-0.8049,-0.8065,-0.8099,-0.8127,-0.8135,-0.8155,-0.8179,-0.8198,-0.8213,-0.824,-0.8248,-0.8271,-0.8299,-0.8318,-0.8354,-0.8363,-0.8397,-0.8399,-0.8388,-0.8389,-0.8404,-0.8402,-0.8448,-0.8455,-0.8425,-0.8425,-0.8426,0,-0.8066,-0.8085,-0.8116,-0.8131,-0.8145,-0.8169,-0.8186,-0.8203,-0.822,-0.825,-0.8265,-0.8294,-0.8318,-0.8363,-0.8383,-0.8411,-0.8415,-0.8429,-0.8419,-0.8414,-0.8415,-0.8413,-0.8415,-0.8431,-0.8431,-0.8431,-0.8431,0,-0.8095,-0.8103,-0.8126,-0.8152,-0.8172,-0.8194,-0.8216,-0.8228,-0.8248,-0.8267,-0.8296,-0.8314,-0.8351,-0.838,-0.841,-0.8426,-0.8432,-0.8434,-0.8439,-0.8435,-0.8427,-0.8432,-0.8392,-0.8433,-0.8433,-0.8433,-0.8433,-0.8433,-0.8113,-0.8131,-0.8155,-0.8181,-0.8199,-0.8219,-0.8238,-0.8255,-0.8279,-0.8309,-0.8318,-0.8348,-0.8373,-0.8414,-0.843,-0.8455,-0.8453,-0.846,-0.8462,-0.8464,-0.8464,-0.8424,-0.846,-0.846,-0.846,-0.846,-0.846,0,-0.8143,-0.8159,-0.8182,-0.8212,-0.8233,-0.8236,-0.8261,-0.8278,-0.8304,-0.8327,-0.835,-0.8383,-0.8411,-0.8434,-0.8463,-0.8478,-0.8482,-0.8485,-0.8484,-0.8487,-0.8464,-0.8456,-0.8481,-0.8481,-0.8481,-0.8481,-0.8481,-0.8481,-0.816,-0.819,-0.82,-0.8239,-0.8255,-0.8284,-0.8298,-0.8317,-0.8335,-0.8371,-0.8394,-0.8409,-0.8432,-0.8462,-0.8489,-0.8495,-0.8505,-0.8508,-0.8514,-0.8492,-0.8489,-0.8487,-0.848,-0.851,-0.851,-0.8536,-0.8536,-0.8536]}]]